When you browse on this site, cookies collect data to enhance your experience and personalize the content and advertising you see.
Visit our Privacy Policy to learn more. By continuing to use the site, you agree to this use of cookies and data.

Hourly Weather Goiania

Today, 21 September, Monday

Time Temperature Precipitation Wind Pressure Humidity
00:00 +27°C° 0 mm 2 mps 698 mmHg 42%
01:00 +26°C° 0 mm 3 mps 698 mmHg 47%
02:00 +25°C° 0 mm 3 mps 697 mmHg 51%
03:00 +25°C° 0 mm 3 mps 697 mmHg 55%
04:00 +25°C° 0 mm 3 mps 697 mmHg 56%
05:00 +25°C° 0 mm 4 mps 697 mmHg 57%
06:00 +25°C° 0 mm 4 mps 698 mmHg 57%
07:00 +26°C° 0 mm 4 mps 698 mmHg 52%
08:00 +28°C° 0 mm 5 mps 699 mmHg 46%
09:00 +29°C° 0 mm 5 mps 699 mmHg 41%
10:00 +33°C° 0 mm 4 mps 699 mmHg 34%
11:00 +36°C° 0 mm 3 mps 699 mmHg 27%
12:00 +39°C° 0 mm 2 mps 699 mmHg 20%
13:00 +39°C° 0 mm 2 mps 698 mmHg 20%
14:00 +39°C° 0 mm 1 mps 697 mmHg 20%
15:00 +36°C° 0 mm 0 mps 696 mmHg 20%
16:00 +36°C° 0.1 mm 1 mps 696 mmHg 23%
17:00 +34°C° 0.1 mm 1 mps 696 mmHg 26%
18:00 +32°C° 0.1 mm 1 mps 696 mmHg 29%
19:00 +31°C° 0.2 mm 2 mps 697 mmHg 34%
20:00 +29°C° 0.2 mm 2 mps 697 mmHg 39%
21:00 +28°C° 0.2 mm 3 mps 698 mmHg 43%
22:00 +27°C° 0 mm 3 mps 698 mmHg 47%
23:00 +27°C° 0 mm 3 mps 698 mmHg 50%

Tomorrow, 22 September, Tuesday

Time Temperature Precipitation Wind Pressure Humidity
00:00 +26°C° 0 mm 3 mps 698 mmHg 53%
01:00 +25°C° 0 mm 2 mps 698 mmHg 56%
02:00 +24°C° 0 mm 2 mps 698 mmHg 60%
03:00 +24°C° 0 mm 2 mps 697 mmHg 63%
04:00 +23°C° 0.1 mm 2 mps 698 mmHg 68%
05:00 +21°C° 0.1 mm 2 mps 698 mmHg 72%
06:00 +20°C° 0.1 mm 2 mps 698 mmHg 77%
07:00 +22°C° 0.1 mm 3 mps 699 mmHg 69%
08:00 +25°C° 0.1 mm 4 mps 700 mmHg 62%
09:00 +27°C° 0.1 mm 5 mps 700 mmHg 54%
10:00 +29°C° 0 mm 4 mps 700 mmHg 47%
11:00 +31°C° 0 mm 3 mps 700 mmHg 41%
12:00 +33°C° 0 mm 3 mps 700 mmHg 34%
13:00 +33°C° 0.1 mm 3 mps 700 mmHg 35%
14:00 +32°C° 0.1 mm 4 mps 699 mmHg 36%
15:00 +32°C° 0.1 mm 4 mps 699 mmHg 37%
16:00 +29°C° 0.2 mm 4 mps 699 mmHg 44%
17:00 +28°C° 0.2 mm 3 mps 699 mmHg 50%
18:00 +26°C° 0.2 mm 3 mps 699 mmHg 56%
19:00 +26°C° 0.2 mm 3 mps 699 mmHg 60%
20:00 +25°C° 0.2 mm 3 mps 700 mmHg 65%
21:00 +24°C° 0.2 mm 3 mps 700 mmHg 69%
22:00 +24°C° 0.4 mm 2 mps 700 mmHg 70%
23:00 +24°C° 0.4 mm 2 mps 700 mmHg 72%

Day after tomorrow, 23 September, Wednesday

Time Temperature Precipitation Wind Pressure Humidity
00:00 +24°C° 0.4 mm 1 mps 700 mmHg 73%
01:00 +23°C° 0.8 mm 1 mps 700 mmHg 75%
02:00 +23°C° 0.8 mm 2 mps 700 mmHg 77%
03:00 +23°C° 0.8 mm 2 mps 700 mmHg 79%
04:00 +23°C° 0.3 mm 2 mps 700 mmHg 80%
05:00 +21°C° 0.3 mm 2 mps 700 mmHg 81%
06:00 +21°C° 0.3 mm 2 mps 700 mmHg 82%
07:00 +21°C° 0.7 mm 3 mps 701 mmHg 81%
08:00 +21°C° 0.7 mm 4 mps 701 mmHg 80%
09:00 +22°C° 0.7 mm 5 mps 702 mmHg 79%
10:00 +23°C° 0.1 mm 5 mps 702 mmHg 71%
11:00 +26°C° 0.1 mm 4 mps 701 mmHg 63%
12:00 +28°C° 0.1 mm 4 mps 701 mmHg 55%
13:00 +29°C° 0 mm 3 mps 701 mmHg 50%
14:00 +31°C° 0 mm 3 mps 700 mmHg 44%
15:00 +32°C° 0 mm 2 mps 700 mmHg 39%
16:00 +31°C° 0 mm 2 mps 700 mmHg 41%
17:00 +30°C° 0 mm 1 mps 700 mmHg 43%
18:00 +29°C° 0 mm 1 mps 699 mmHg 44%
19:00 +28°C° 0 mm 2 mps 700 mmHg 49%
20:00 +27°C° 0 mm 3 mps 700 mmHg 54%
21:00 +27°C° 0 mm 4 mps 700 mmHg 59%
22:00 +26°C° 0 mm 3 mps 700 mmHg 60%
23:00 +25°C° 0 mm 3 mps 700 mmHg 62%

24 September, Thursday

Time Temperature Precipitation Wind Pressure Humidity
00:00 +25°C° 0 mm 3 mps 700 mmHg 63%
01:00 +24°C° 0 mm 3 mps 700 mmHg 66%
02:00 +24°C° 0 mm 3 mps 699 mmHg 69%
03:00 +22°C° 0 mm 3 mps 699 mmHg 72%
04:00 +22°C° 0 mm 3 mps 699 mmHg 72%
05:00 +22°C° 0 mm 3 mps 699 mmHg 73%
06:00 +21°C° 0 mm 3 mps 700 mmHg 73%
07:00 +24°C° 0 mm 3 mps 700 mmHg 66%
08:00 +26°C° 0 mm 4 mps 701 mmHg 58%
09:00 +28°C° 0 mm 4 mps 702 mmHg 51%
10:00 +30°C° 0 mm 4 mps 701 mmHg 45%
11:00 +33°C° 0 mm 3 mps 701 mmHg 38%
12:00 +35°C° 0 mm 3 mps 701 mmHg 32%
13:00 +36°C° 0 mm 2 mps 700 mmHg 30%
14:00 +37°C° 0 mm 2 mps 700 mmHg 28%
15:00 +36°C° 0 mm 1 mps 699 mmHg 26%
16:00 +35°C° 0 mm 1 mps 699 mmHg 29%
17:00 +34°C° 0 mm 2 mps 699 mmHg 31%
18:00 +32°C° 0 mm 2 mps 698 mmHg 34%
19:00 +31°C° 0 mm 2 mps 699 mmHg 37%
20:00 +30°C° 0 mm 2 mps 699 mmHg 39%
21:00 +29°C° 0 mm 3 mps 699 mmHg 42%
22:00 +28°C° 0 mm 3 mps 699 mmHg 44%
23:00 +28°C° 0 mm 3 mps 699 mmHg 47%

25 September, Friday

Time Temperature Precipitation Wind Pressure Humidity
00:00 +27°C° 0 mm 2 mps 699 mmHg 49%
01:00 +27°C° 0 mm 3 mps 699 mmHg 50%
02:00 +26°C° 0 mm 3 mps 699 mmHg 51%
03:00 +26°C° 0 mm 3 mps 698 mmHg 52%
04:00 +25°C° 0 mm 4 mps 699 mmHg 53%
05:00 +25°C° 0 mm 4 mps 699 mmHg 55%
06:00 +25°C° 0 mm 5 mps 699 mmHg 56%
07:00 +26°C° 0 mm 5 mps 700 mmHg 52%
08:00 +28°C° 0 mm 5 mps 700 mmHg 48%
09:00 +30°C° 0 mm 6 mps 701 mmHg 43%
10:00 +33°C° 0 mm 5 mps 701 mmHg 37%
11:00 +35°C° 0 mm 4 mps 701 mmHg 30%
12:00 +37°C° 0 mm 3 mps 701 mmHg 23%
13:00 +38°C° 0 mm 3 mps 700 mmHg 21%
14:00 +38°C° 0 mm 2 mps 699 mmHg 19%
15:00 +39°C° 0 mm 2 mps 698 mmHg 17%
16:00 +37°C° 0 mm 2 mps 698 mmHg 20%
17:00 +35°C° 0 mm 2 mps 698 mmHg 22%
18:00 +34°C° 0 mm 2 mps 697 mmHg 24%
19:00 +33°C° 0 mm 3 mps 698 mmHg 27%
20:00 +30°C° 0 mm 3 mps 698 mmHg 30%
21:00 +29°C° 0 mm 3 mps 698 mmHg 34%
22:00 +28°C° 0 mm 3 mps 698 mmHg 34%
23:00 +28°C° 0 mm 3 mps 698 mmHg 35%

26 September, Saturday

Time Temperature Precipitation Wind Pressure Humidity
00:00 +27°C° 0 mm 3 mps 698 mmHg 35%
01:00 +26°C° 0 mm 2 mps 698 mmHg 36%
02:00 +26°C° 0 mm 2 mps 698 mmHg 36%
03:00 +25°C° 0 mm 2 mps 697 mmHg 36%
04:00 +25°C° 0 mm 2 mps 698 mmHg 38%
05:00 +24°C° 0 mm 3 mps 698 mmHg 39%
06:00 +23°C° 0 mm 4 mps 698 mmHg 41%
07:00 +26°C° 0 mm 4 mps 699 mmHg 40%
08:00 +27°C° 0 mm 5 mps 700 mmHg 38%
09:00 +29°C° 0 mm 5 mps 701 mmHg 37%
10:00 +33°C° 0 mm 4 mps 700 mmHg 32%
11:00 +35°C° 0 mm 3 mps 700 mmHg 26%
12:00 +38°C° 0 mm 2 mps 700 mmHg 21%
13:00 +37°C° 0 mm 1 mps 699 mmHg 20%
14:00 +39°C° 0 mm 1 mps 699 mmHg 18%
15:00 +39°C° 0 mm 1 mps 698 mmHg 16%
16:00 +37°C° 0 mm 1 mps 698 mmHg 18%
17:00 +35°C° 0 mm 1 mps 697 mmHg 20%
18:00 +33°C° 0 mm 1 mps 697 mmHg 22%
19:00 +31°C° 0 mm 2 mps 697 mmHg 23%
20:00 +30°C° 0 mm 2 mps 697 mmHg 25%
21:00 +28°C° 0 mm 2 mps 697 mmHg 27%
22:00 +28°C° 0 mm 2 mps 697 mmHg 28%
23:00 +27°C° 0 mm 3 mps 697 mmHg 29%
Show more